Location: Middelsbur
(53.6609°N, 7.5020°E)
Time: 23:48:07
(UTC+00:00)

ATLAS 5 CENTAUR R/B - Pass Details

Date: 06 July 2020
Orbit: 534 x 1124 km, 63.4° (Epoch: 09 August)

Event Time Altitude Azimuth Distance (km) Brightness Sun altitude
Rises 20:47:07 0° 218° (SW) 2,729 4.7 -5.6°
Reaches altitude 10° 20:49:12 10° 216° (SW) 1,879 3.9 -5.8°
Maximum altitude 20:53:22 71° 133° (SE) 663 1.5 -6.2°
Drops below altitude 10° 20:58:11 10° 50° (NE) 2,161 4.4 -6.6°
Sets 21:00:44 0° 49° (NE) 3,181 5.3 -6.8°
